Location: Litvinovka
(48.6667°N, 34.3500°E)
Time: 10:25:40
(UTC+00:00)

Cosmos 1975 - Pass Details

Date: 18 September 2020
Orbit: 540 x 562 km, 82.5° (Epoch: 25 October)

Event Time Altitude Azimuth Distance (km) Brightness Sun altitude
Rises 17:08:56 0° 208° (SSW) 2,744 6.5 -13.9°
Reaches altitude 10° 17:11:13 10° 216° (SW) 1,853 5.7 -14.2°
Maximum altitude 17:15:02 38° 286° (WNW) 870 4.5 -14.8°
Drops below altitude 10° 17:18:53 10° 355° (N) 1,862 5.8 -15.4°
Sets 17:21:11 0° 4° (N) 2,761 6.6 -15.8°
